Zurück zum Katalog

SL-8 DEB

AktivLEO
NORAD 39835·DEBRIS·🇷🇺 Russia

Gestartet Feb 12, 1991 von Plesetsk Cosmodrome

Loading…

Nächste Überflüge (nächste 24 Stunden)

TLE

AlterndSource: Space-Track

Epoche: Sep 12, 2026, 09:52 UTC

1 39835U 91009DT  26255.41157865  .00000202  00000-0  18747-2 0  9997
2 39835  74.0448  48.8987 0185917 103.5402 258.6421 12.24185830548512

Verfolge SL-8 DEB in Echtzeit mit AllMySat

Download on the App Store